Anaktuvuk Pass, AK

11:41 AM AKST on December 07, 2016 (GMT -0900)
Anaktuvuk Pass

Weather History for PAKP - June, 2014

Change the Weather History Date:

Tuesday, June 3, 2014

  Actual Average Record
Temperature  
Mean Temperature 44 °F -  
Max Temperature 57 °F 51 °F 64 °F (2007)
Min Temperature 30 °F 33 °F 19 °F (2006)
Degree Days  
Heating Degree Days 22    
Moisture  
Dew Point 31 °F    
Average Humidity 63    
Maximum Humidity 87    
Minimum Humidity 33    
Precipitation  
Precipitation 0.00 in - - ()
Sea Level Pressure  
Sea Level Pressure 30.17 in    
Wind  
Wind Speed 7 mph (NE)    
Max Wind Speed 15 mph    
Max Gust Speed 18 mph    
Visibility 10 miles    
Events      
Averages and records for this station are not official NWS values.
T = Trace of Precipitation, MM = Missing Value Source: NWS Daily Summary

Daily Weather History Graph

Daily Weather History Graph

Search for Another Location

Airport or City:

Trip Planner

Search our weather history database for the weather conditions in past years. The results will help you decide how hot, cold, wet, or windy it might be!

Date:

Astronomy

Jun. 03, 2014 Rise Set
Actual Time 2:37 AM AKDT 1:32 AM AKDT
Civil Twilight Sun does not rise Sun does not rise
Nautical Twilight Sun does not rise Sun does not rise
Astronomical Twilight Sun does not rise Sun does not rise
Moon 10:58 AM AKDT (6/3) 2:26 AM AKDT (6/3)
Length of Visible Light 24h 00m
Length of Day
22h 55m
Waxing Crescent, 31% of the Moon is Illuminated
Jun 3
Waxing Crescent
Jun 5
First Quarter
Jun 12
Full
Jun 19
Last Quarter
Jun 27
New

Hourly Weather History & Observations

Time (AKDT) Temp. Windchill Dew Point Humidity Pressure Visibility Wind Dir Wind Speed Gust Speed Precip Events Conditions
12:16 AM 35.6 °F 28.6 °F 28.4 °F 75% 30.22 in 10.0 mi NE 9.2 mph - N/A   Clear
12:36 AM 33.8 °F 26.4 °F 28.4 °F 81% 30.22 in 10.0 mi NE 9.2 mph - N/A   Clear
12:56 AM 33.8 °F 26.4 °F 28.4 °F 81% 30.23 in 10.0 mi NE 9.2 mph - N/A   Clear
1:16 AM 33.8 °F 28.6 °F 28.4 °F 81% 30.23 in 10.0 mi North 5.8 mph - N/A   Clear
1:36 AM 33.8 °F 28.6 °F 28.4 °F 81% 30.23 in 10.0 mi NE 5.8 mph - N/A   Clear
1:56 AM 33.8 °F 28.6 °F 26.6 °F 75% 30.23 in 10.0 mi NNE 5.8 mph - N/A   Clear
2:16 AM 32.0 °F 27.5 °F 26.6 °F 80% 30.23 in 10.0 mi North 4.6 mph - N/A   Clear
2:36 AM 32.0 °F 27.5 °F 26.6 °F 80% 30.23 in 10.0 mi North 4.6 mph - N/A   Clear
2:56 AM 30.2 °F 25.4 °F 26.6 °F 86% 30.23 in 10.0 mi North 4.6 mph - N/A   Clear
3:16 AM 30.2 °F 24.3 °F 26.6 °F 86% 30.24 in 10.0 mi NNE 5.8 mph - N/A   Clear
3:36 AM 30.2 °F 24.3 °F 26.6 °F 86% 30.24 in 10.0 mi NNE 5.8 mph - N/A   Partly Cloudy
3:56 AM 30.2 °F 24.3 °F 26.6 °F 86% 30.23 in 10.0 mi NE 5.8 mph - N/A   Mostly Cloudy
4:16 AM 30.2 °F 24.3 °F 26.6 °F 86% 30.23 in 10.0 mi North 5.8 mph - N/A   Scattered Clouds
4:36 AM 30.2 °F 25.4 °F 26.6 °F 86% 30.23 in 10.0 mi North 4.6 mph - N/A   Clear
4:56 AM 30.2 °F 24.3 °F 26.6 °F 86% 30.23 in 10.0 mi North 5.8 mph - N/A   Clear
5:16 AM 30.2 °F 24.3 °F 26.6 °F 86% 30.23 in 10.0 mi NNE 5.8 mph - N/A   Mostly Cloudy
5:36 AM 32.0 °F 26.4 °F 28.4 °F 87% 30.23 in 10.0 mi NNE 5.8 mph - N/A   Overcast
5:56 AM 33.8 °F 28.6 °F 28.4 °F 81% 30.23 in 10.0 mi NNE 5.8 mph - N/A   Overcast
6:16 AM 33.8 °F 28.6 °F 28.4 °F 81% 30.23 in 10.0 mi NNE 5.8 mph - N/A   Overcast
6:36 AM 33.8 °F 27.7 °F 28.4 °F 81% 30.24 in 10.0 mi NNE 6.9 mph - N/A   Overcast
6:56 AM 33.8 °F 26.4 °F 28.4 °F 81% 30.23 in 10.0 mi NNE 9.2 mph - N/A   Overcast
7:16 AM 33.8 °F 27.7 °F 28.4 °F 81% 30.23 in 10.0 mi NNE 6.9 mph - N/A   Overcast
7:36 AM 33.8 °F 27.7 °F 28.4 °F 81% 30.23 in 10.0 mi NNE 6.9 mph - N/A   Mostly Cloudy
7:56 AM 35.6 °F 30.7 °F 30.2 °F 81% 30.23 in 10.0 mi NNE 5.8 mph - N/A   Partly Cloudy
8:16 AM 37.4 °F 32.1 °F 30.2 °F 75% 30.22 in 10.0 mi NNE 6.9 mph - N/A   Mostly Cloudy
8:36 AM 39.2 °F 34.2 °F 30.2 °F 70% 30.22 in 10.0 mi North 6.9 mph - N/A   Overcast
8:56 AM 39.2 °F 34.2 °F 30.2 °F 70% 30.22 in 10.0 mi NNE 6.9 mph - N/A   Overcast
9:16 AM 39.2 °F 34.2 °F 30.2 °F 70% 30.22 in 10.0 mi NE 6.9 mph - N/A   Overcast
9:36 AM 39.2 °F 34.2 °F 30.2 °F 70% 30.21 in 10.0 mi NNE 6.9 mph - N/A   Mostly Cloudy
9:56 AM 41.0 °F 36.4 °F 30.2 °F 65% 30.21 in 10.0 mi NNE 6.9 mph - N/A   Partly Cloudy
10:16 AM 42.8 °F 38.0 °F 32.0 °F 66% 30.21 in 10.0 mi NNE 8.1 mph - N/A   Clear
10:36 AM 42.8 °F 39.3 °F 32.0 °F 66% 30.21 in 10.0 mi NE 5.8 mph - N/A   Scattered Clouds
10:56 AM 44.6 °F 42.2 °F 32.0 °F 61% 30.20 in 10.0 mi North 4.6 mph - N/A   Overcast
11:16 AM 44.6 °F 41.4 °F 32.0 °F 61% 30.20 in 10.0 mi NNE 5.8 mph - N/A   Overcast
11:56 AM 48.2 °F - 33.8 °F 58% 30.19 in 10.0 mi NE 3.5 mph - N/A   Mostly Cloudy
12:16 PM 46.4 °F - 33.8 °F 62% 30.19 in 10.0 mi Calm Calm - N/A   Partly Cloudy
12:36 PM 48.2 °F - 33.8 °F 58% 30.18 in 10.0 mi SSE 3.5 mph - N/A   Clear
12:56 PM 48.2 °F - 33.8 °F 58% 30.18 in 10.0 mi South 5.8 mph - N/A   Clear
1:16 PM 51.8 °F - 35.6 °F 54% 30.17 in 10.0 mi SSE 8.1 mph - N/A   Clear
1:36 PM 53.6 °F - 35.6 °F 51% 30.16 in 10.0 mi SSW 6.9 mph - N/A   Clear
1:56 PM 55.4 °F - 33.8 °F 44% 30.16 in 10.0 mi WSW 8.1 mph - N/A   Clear
2:16 PM 55.4 °F - 33.8 °F 44% 30.16 in 10.0 mi SW 9.2 mph - N/A   Mostly Cloudy
2:36 PM 55.4 °F - 33.8 °F 44% 30.15 in 10.0 mi WSW 8.1 mph - N/A   Partly Cloudy
2:56 PM 55.4 °F - 33.8 °F 44% 30.15 in 7.0 mi SW 6.9 mph - N/A   Partly Cloudy
3:16 PM 55.4 °F - 30.2 °F 38% 30.14 in 10.0 mi West 4.6 mph - N/A   Scattered Clouds
3:36 PM 55.4 °F - 30.2 °F 38% 30.14 in 10.0 mi WSW 3.5 mph - N/A   Mostly Cloudy
3:56 PM 57.2 °F - 30.2 °F 36% 30.13 in 6.0 mi South 9.2 mph - N/A   Mostly Cloudy
4:16 PM 57.2 °F - 30.2 °F 36% 30.13 in 10.0 mi SSE 8.1 mph - N/A   Mostly Cloudy
4:36 PM 57.2 °F - 30.2 °F 36% 30.12 in 10.0 mi SSE 8.1 mph - N/A   Overcast
4:56 PM 55.4 °F - 30.2 °F 38% 30.12 in 9.0 mi SW 5.8 mph - N/A   Scattered Clouds
5:16 PM 55.4 °F - 30.2 °F 38% 30.12 in 10.0 mi SW 6.9 mph - N/A   Mostly Cloudy
5:36 PM 55.4 °F - 30.2 °F 38% 30.11 in 10.0 mi SSW 5.8 mph - N/A   Overcast
5:56 PM 55.4 °F - 30.2 °F 38% 30.11 in 10.0 mi SSW 5.8 mph - N/A   Overcast
6:16 PM 55.4 °F - 28.4 °F 36% 30.10 in 10.0 mi Calm Calm - N/A   Overcast
6:36 PM 55.4 °F - 30.2 °F 38% 30.10 in 10.0 mi SSE 8.1 mph - N/A   Overcast
7:16 PM 57.2 °F - 30.2 °F 36% 30.09 in 10.0 mi SW 6.9 mph - N/A   Overcast
7:36 PM 57.2 °F - 28.4 °F 33% 30.09 in 10.0 mi NE 9.2 mph - N/A   Mostly Cloudy
7:56 PM 55.4 °F - 35.6 °F 47% 30.09 in 10.0 mi NE 13.8 mph - N/A   Mostly Cloudy
8:16 PM 53.6 °F - 35.6 °F 51% 30.09 in 10.0 mi NE 11.5 mph 16.1 mph N/A   Overcast
8:36 PM 53.6 °F - 35.6 °F 51% 30.09 in 10.0 mi NE 15.0 mph 18.4 mph N/A   Overcast
9:16 PM 51.8 °F - 35.6 °F 54% 30.09 in 10.0 mi NE 13.8 mph - N/A   Overcast
9:36 PM 51.8 °F - 35.6 °F 54% 30.10 in 10.0 mi ENE 10.4 mph - N/A   Overcast
9:56 PM 51.8 °F - 35.6 °F 54% 30.10 in 10.0 mi NE 12.7 mph - N/A   Overcast
10:16 PM 50.0 °F - 35.6 °F 58% 30.10 in 10.0 mi ENE 12.7 mph - N/A   Mostly Cloudy
10:36 PM 48.2 °F - 35.6 °F 62% 30.10 in 10.0 mi NE 11.5 mph - N/A   Scattered Clouds
10:56 PM 48.2 °F - 35.6 °F 62% 30.10 in 10.0 mi ENE 9.2 mph - N/A   Scattered Clouds
11:16 PM 46.4 °F 41.9 °F 35.6 °F 66% 30.11 in 10.0 mi ENE 9.2 mph 18.4 mph N/A   Scattered Clouds
11:36 PM 46.4 °F 41.1 °F 35.6 °F 66% 30.11 in 10.0 mi ENE 11.5 mph - N/A   Clear
11:56 PM 46.4 °F 41.1 °F 35.6 °F 66% 30.11 in 10.0 mi ENE 11.5 mph - N/A   Partly Cloudy